Starlink 31841

operational
NORAD ID: 59732 Int'l Des: 2024-090 Owner: SPXS Country: US Constellation: starlink
LEOCIRCULAR

Über Starlink 31841

Beschreibung wird geladen...

Live-Position

3D-Globus wird geladen...

Nächste Überflüge

Höhenverlauf

Altitude vs Time

uPlot chart will show altitude changes over time

Zweizeiliger Elementsatz

1 59732U 24090C 25304.83336806 .00830832 00000-0 71446-2 0 9990
2 59732 42.9884 141.8459 0027796 269.6168 263.2809 15.65606484 5970
Epoch: 31. Okt. 2025 • Age: 23 hours

Aktueller Status

Höhe 363.3 km
Geschwindigkeit 7.70 km/s
Subsatellitenpunkt -30.98°S, 26.65°E
Startdatum 13. Mai 2024
Alter 1.4 years
Typ internet

Technische Details

Klassifizierung Payload
Masse 730.00 kg
Trockenmasse 700.00 kg
Gesamtmasse 730.00 kg
Länge 0.30 m
Durchmesser 4.10 m
Spannweite 29.00 m
Form Box + pan
Hersteller SPXS
Bus-Typ Starlink V2M
Phasenstatus In Orbit
Besitzer/Staat SPXS/US

Große Konstellationen

Loading constellations...